Regional Weather Roundup
Issued by NWS Sioux Falls, SD

Home | Current Version | Previous Version | Graphics & Text | Print | Product List | Glossary Off
Versions: 1 2 3 4 5 6 7 8 9 10 11 12 13 14 15 16 17 18 19 20 21 22 23 24 25 26 27 28 29 30 31 32 33 34 35 36 37 38 39 40 41 42 43 44 45 46 47 48 49 50

000
ASUS43 KFSD 240310
RWRFSD

WEATHER ROUNDUP FOR SE SOUTH DAKOTA/SW MINNESOTA/NW IOWA
NATIONAL WEATHER SERVICE SIOUX FALLS SD
1000 PM CDT SAT MAY 23 2015

NOTE: "FAIR" INDICATES FEW OR NO CLOUDS BELOW 12,000 FEET WITH NO
SIGNIFICANT WEATHER AND OR OBSTRUCTIONS TO VISIBILITY.


SDZ038>040-050-052>070-240400-
SOUTHEAST SOUTH DAKOTA

CITY           SKY/WX    TMP DP  RH WIND       PRES   REMARKS
BROOKINGS      CLOUDY    63  54  72 CALM      30.10R
CHAMBERLAIN    CLOUDY    57  55  91 E5        30.07R
HURON          MOCLDY    59  52  77 CALM      30.07S
MADISON        CLOUDY    59  54  82 S3        30.09R
MITCHELL       CLOUDY    61  55  81 S5        30.08R
SIOUX FALLS    CLOUDY    62  54  74 SW3       30.08S
WINNER         LGT RAIN  57  54  89 E9        30.05S
YANKTON        CLOUDY    59  54  82 NE5       30.06S
$$

MNZ071-072-080-081-089-090-097-098-240400-
SOUTHWEST MINNESOTA

CITY           SKY/WX    TMP DP  RH WIND       PRES   REMARKS
FAIRMONT       CLOUDY    64  48  55 SE8       30.11R
JACKSON        CLOUDY    64  52  63 S6        30.12R
LUVERNE        CLOUDY    64  52  63 CALM      30.10R
MARSHALL       CLOUDY    63  48  59 E7        30.09S
MONTEVIDEO     CLOUDY    63  48  59 SE9       30.12R
REDWOOD FALLS  CLOUDY    62  49  62 NE6       30.10S
TRACY          CLOUDY    65  49  56 S3        30.10R
WINDOM         CLOUDY    63  48  59 CALM      30.11R
WORTHINGTON    CLOUDY    63  48  59 SE5       30.11R
$$

IAZ001>003-012>014-020>022-031-032-NEZ013-014-SDZ071-240400-
NORTHWEST IOWA

CITY           SKY/WX    TMP DP  RH WIND       PRES   REMARKS
CHEROKEE       CLOUDY    62  57  83 CALM      30.09R
DENISON        CLOUDY    64  61  88 E5        30.06S
ESTHERVILLE    CLOUDY    63  52  67 SE8       30.10R
LE MARS        CLOUDY    64  55  72 CALM      30.09R
ORANGE CITY    CLOUDY    61  55  82 CALM      30.09R
SHELDON        CLOUDY    63  54  72 CALM      30.09R
SIOUX CITY     CLOUDY    63  55  75 SE5       30.07R
SPENCER        CLOUDY    63  55  75 SE5       30.10
STORM LAKE     CLOUDY    63  55  77 E3        30.09F
$$

ABBREVIATIONS USED IN REMARKS
   TC - TEMPERATURE IN CELSIUS
  WCI - WIND CHILL INDEX
   HX - HEAT INDEX
  VSB - VISIBILITY




USA.gov is the U.S. government's official web portal to all federal, state and local government web resources and services.